When you browse on this site, cookies collect data to enhance your experience and personalize the content and advertising you see.
Visit our Privacy Policy to learn more. By continuing to use the site, you agree to this use of cookies and data.
  • In Netherlands
  • List of Countries
  • For 7 days
  • Water Temperature
  • Weather Map
  • Weather Widgets
  • user-avatar
    Login

    Hourly Weather Koltovo

    Today, 6 June, Saturday

    Time Temperature Precipitation Wind Pressure Humidity
    00:00 +11°C° 0 mm 3 mps 739 mmHg 95%
    01:00 +11°C° 0 mm 3 mps 739 mmHg 96%
    02:00 +12°C° 0 mm 3 mps 739 mmHg 97%
    03:00 +12°C° 0 mm 3 mps 739 mmHg 97%
    04:00 +13°C° 0 mm 3 mps 738 mmHg 96%
    05:00 +13°C° 0 mm 4 mps 738 mmHg 96%
    06:00 +15°C° 0 mm 4 mps 738 mmHg 93%
    07:00 +17°C° 0 mm 4 mps 739 mmHg 90%
    08:00 +19°C° 0 mm 5 mps 739 mmHg 87%
    09:00 +19°C° 0.3 mm 5 mps 739 mmHg 87%
    10:00 +20°C° 0.3 mm 5 mps 739 mmHg 87%
    11:00 +20°C° 0.3 mm 5 mps 740 mmHg 87%
    12:00 +21°C° 0.2 mm 5 mps 740 mmHg 85%
    13:00 +22°C° 0.2 mm 5 mps 740 mmHg 83%
    14:00 +22°C° 0.2 mm 5 mps 740 mmHg 80%
    15:00 +22°C° 0.7 mm 5 mps 740 mmHg 81%
    16:00 +22°C° 0.7 mm 5 mps 740 mmHg 83%
    17:00 +22°C° 0.7 mm 4 mps 741 mmHg 84%
    18:00 +21°C° 0.1 mm 3 mps 741 mmHg 86%
    19:00 +19°C° 0.1 mm 3 mps 741 mmHg 89%
    20:00 +18°C° 0.1 mm 2 mps 742 mmHg 91%
    21:00 +17°C° 0 mm 2 mps 742 mmHg 91%
    22:00 +17°C° 0 mm 2 mps 743 mmHg 91%
    23:00 +16°C° 0 mm 2 mps 743 mmHg 92%

    Tomorrow, 7 June, Sunday

    Time Temperature Precipitation Wind Pressure Humidity
    00:00 +15°C° 0 mm 2 mps 744 mmHg 91%
    01:00 +14°C° 0 mm 1 mps 744 mmHg 91%
    02:00 +14°C° 0 mm 1 mps 745 mmHg 90%
    03:00 +14°C° 0 mm 1 mps 745 mmHg 90%
    04:00 +14°C° 0 mm 1 mps 745 mmHg 90%
    05:00 +14°C° 0 mm 1 mps 745 mmHg 90%
    06:00 +16°C° 0 mm 1 mps 745 mmHg 86%
    07:00 +18°C° 0 mm 2 mps 746 mmHg 83%
    08:00 +20°C° 0 mm 2 mps 746 mmHg 80%
    09:00 +21°C° 0 mm 2 mps 746 mmHg 76%
    10:00 +23°C° 0 mm 2 mps 746 mmHg 72%
    11:00 +25°C° 0 mm 3 mps 746 mmHg 68%
    12:00 +25°C° 0 mm 3 mps 746 mmHg 66%
    13:00 +26°C° 0 mm 2 mps 746 mmHg 65%
    14:00 +26°C° 0 mm 2 mps 746 mmHg 63%
    15:00 +26°C° 0 mm 2 mps 746 mmHg 66%
    16:00 +26°C° 0 mm 2 mps 746 mmHg 70%
    17:00 +26°C° 0 mm 2 mps 745 mmHg 73%
    18:00 +25°C° 0.1 mm 2 mps 745 mmHg 77%
    19:00 +22°C° 0.1 mm 3 mps 745 mmHg 82%
    20:00 +21°C° 0.1 mm 3 mps 745 mmHg 86%
    21:00 +20°C° 0 mm 3 mps 745 mmHg 89%
    22:00 +19°C° 0 mm 3 mps 745 mmHg 91%
    23:00 +19°C° 0 mm 2 mps 745 mmHg 94%

    Day after tomorrow, 8 June, Monday

    Time Temperature Precipitation Wind Pressure Humidity
    00:00 +18°C° 0 mm 2 mps 745 mmHg 94%
    01:00 +18°C° 0 mm 2 mps 746 mmHg 95%
    02:00 +18°C° 0 mm 2 mps 746 mmHg 95%
    03:00 +18°C° 0 mm 2 mps 746 mmHg 95%
    04:00 +18°C° 0 mm 2 mps 746 mmHg 95%
    05:00 +18°C° 0 mm 2 mps 746 mmHg 95%
    06:00 +20°C° 0 mm 3 mps 746 mmHg 92%
    07:00 +21°C° 0 mm 3 mps 746 mmHg 88%
    08:00 +24°C° 0 mm 3 mps 746 mmHg 84%
    09:00 +25°C° 0 mm 3 mps 746 mmHg 80%
    10:00 +26°C° 0 mm 3 mps 746 mmHg 76%
    11:00 +27°C° 0 mm 3 mps 746 mmHg 71%
    12:00 +27°C° 0.1 mm 3 mps 746 mmHg 70%
    13:00 +27°C° 0.1 mm 3 mps 746 mmHg 69%
    14:00 +28°C° 0.1 mm 3 mps 745 mmHg 67%
    15:00 +28°C° 0.2 mm 3 mps 745 mmHg 69%
    16:00 +27°C° 0.2 mm 2 mps 745 mmHg 72%
    17:00 +27°C° 0.2 mm 2 mps 745 mmHg 74%
    18:00 +25°C° 0.1 mm 2 mps 745 mmHg 77%
    19:00 +24°C° 0.1 mm 2 mps 745 mmHg 81%
    20:00 +21°C° 0.1 mm 2 mps 745 mmHg 85%
    21:00 +20°C° 0 mm 2 mps 745 mmHg 87%
    22:00 +20°C° 0 mm 2 mps 745 mmHg 89%
    23:00 +19°C° 0 mm 2 mps 745 mmHg 90%

    9 June, Tuesday

    Time Temperature Precipitation Wind Pressure Humidity
    00:00 +19°C° 0 mm 2 mps 745 mmHg 91%
    01:00 +19°C° 0 mm 1 mps 745 mmHg 92%
    02:00 +19°C° 0 mm 1 mps 745 mmHg 93%
    03:00 +19°C° 0 mm 1 mps 745 mmHg 93%
    04:00 +19°C° 0 mm 2 mps 745 mmHg 94%
    05:00 +19°C° 0 mm 2 mps 745 mmHg 95%
    06:00 +20°C° 0.2 mm 2 mps 745 mmHg 92%
    07:00 +23°C° 0.2 mm 2 mps 745 mmHg 89%
    08:00 +24°C° 0.2 mm 3 mps 745 mmHg 86%
    09:00 +25°C° 0.8 mm 3 mps 745 mmHg 84%
    10:00 +25°C° 0.8 mm 3 mps 745 mmHg 82%
    11:00 +26°C° 0.8 mm 4 mps 745 mmHg 80%
    12:00 +26°C° 0.7 mm 3 mps 745 mmHg 79%
    13:00 +27°C° 0.7 mm 3 mps 745 mmHg 78%
    14:00 +27°C° 0.7 mm 3 mps 745 mmHg 77%
    15:00 +27°C° 1.6 mm 3 mps 745 mmHg 79%
    16:00 +26°C° 1.6 mm 3 mps 744 mmHg 81%
    17:00 +26°C° 1.6 mm 3 mps 744 mmHg 83%
    18:00 +25°C° 0.2 mm 3 mps 744 mmHg 86%
    19:00 +22°C° 0.2 mm 3 mps 744 mmHg 88%
    20:00 +21°C° 0.2 mm 3 mps 744 mmHg 91%
    21:00 +21°C° 0 mm 3 mps 744 mmHg 92%
    22:00 +20°C° 0 mm 3 mps 745 mmHg 93%
    23:00 +19°C° 0 mm 3 mps 745 mmHg 95%

    10 June, Wednesday

    Time Temperature Precipitation Wind Pressure Humidity
    00:00 +19°C° 0 mm 3 mps 745 mmHg 95%
    01:00 +18°C° 0 mm 3 mps 745 mmHg 95%
    02:00 +18°C° 0 mm 3 mps 745 mmHg 96%
    03:00 +18°C° 0 mm 3 mps 745 mmHg 96%
    04:00 +18°C° 0 mm 3 mps 745 mmHg 96%
    05:00 +18°C° 0 mm 3 mps 745 mmHg 96%
    06:00 +19°C° 0 mm 3 mps 745 mmHg 93%
    07:00 +21°C° 0 mm 3 mps 745 mmHg 90%
    08:00 +22°C° 0 mm 3 mps 745 mmHg 87%
    09:00 +24°C° 0.1 mm 3 mps 745 mmHg 83%
    10:00 +25°C° 0.1 mm 3 mps 745 mmHg 79%
    11:00 +26°C° 0.1 mm 3 mps 745 mmHg 76%
    12:00 +26°C° 0.7 mm 3 mps 744 mmHg 75%
    13:00 +27°C° 0.7 mm 3 mps 744 mmHg 74%
    14:00 +27°C° 0.7 mm 3 mps 744 mmHg 74%
    15:00 +27°C° 0.6 mm 3 mps 744 mmHg 75%
    16:00 +27°C° 0.6 mm 2 mps 743 mmHg 76%
    17:00 +27°C° 0.6 mm 2 mps 743 mmHg 77%
    18:00 +25°C° 0.2 mm 2 mps 743 mmHg 80%
    19:00 +24°C° 0.2 mm 2 mps 743 mmHg 84%
    20:00 +23°C° 0.2 mm 1 mps 743 mmHg 87%
    21:00 +22°C° 0 mm 1 mps 743 mmHg 88%
    22:00 +21°C° 0 mm 1 mps 743 mmHg 90%
    23:00 +20°C° 0 mm 2 mps 743 mmHg 92%

    11 June, Thursday

    Time Temperature Precipitation Wind Pressure Humidity
    00:00 +19°C° 0 mm 2 mps 743 mmHg 93%
    01:00 +19°C° 0 mm 2 mps 743 mmHg 93%
    02:00 +18°C° 0 mm 2 mps 743 mmHg 94%
    03:00 +19°C° 0 mm 2 mps 743 mmHg 94%
    04:00 +19°C° 0 mm 2 mps 743 mmHg 94%
    05:00 +20°C° 0 mm 1 mps 743 mmHg 94%
    06:00 +22°C° 0 mm 1 mps 743 mmHg 90%
    07:00 +23°C° 0 mm 2 mps 743 mmHg 86%
    08:00 +25°C° 0 mm 2 mps 743 mmHg 82%
    09:00 +26°C° 0.1 mm 2 mps 743 mmHg 78%
    10:00 +27°C° 0.1 mm 2 mps 743 mmHg 74%
    11:00 +28°C° 0.1 mm 3 mps 742 mmHg 70%
    12:00 +28°C° 0 mm 3 mps 742 mmHg 68%
    13:00 +29°C° 0 mm 3 mps 742 mmHg 67%
    14:00 +29°C° 0 mm 3 mps 742 mmHg 65%
    15:00 +29°C° 0 mm 3 mps 741 mmHg 69%
    16:00 +29°C° 0 mm 3 mps 741 mmHg 72%
    17:00 +29°C° 0 mm 2 mps 741 mmHg 75%
    18:00 +27°C° 0 mm 2 mps 741 mmHg 79%
    19:00 +26°C° 0 mm 3 mps 741 mmHg 83%
    20:00 +24°C° 0 mm 3 mps 741 mmHg 87%
    21:00 +23°C° 0.2 mm 2 mps 741 mmHg 89%
    22:00 +21°C° 0.2 mm 2 mps 741 mmHg 91%
    23:00 +21°C° 0.2 mm 2 mps 741 mmHg 92%
    Show more